When you browse on this site, cookies collect data to enhance your experience and personalize the content and advertising you see.
Visit our Privacy Policy to learn more. By continuing to use the site, you agree to this use of cookies and data.
  • Em Portugal
  • Lista de países
  • Para 7 dias
  • Temperatura da água
  • Mapas de satélite
  • Mapa do tempo
  • Widgets de tempo
  • user-avatar
    Iniciar Sessão

    Previsão horária em La Paz

    Hoje, 17 Janeiro, Quinta-feira

    Tempo Temperatura Precipitação Vento Pressão Humidade
    00:00 +7°C° 0 mm 1 m/s 474 mmHg 80%
    01:00 +6°C° 0 mm 1 m/s 474 mmHg 80%
    02:00 +6°C° 0 mm 1 m/s 473 mmHg 81%
    03:00 +6°C° 0 mm 1 m/s 473 mmHg 82%
    04:00 +5°C° 0 mm 0 m/s 473 mmHg 83%
    05:00 +6°C° 0.1 mm 0 m/s 474 mmHg 78%
    06:00 +7°C° 0.1 mm 0 m/s 475 mmHg 74%
    07:00 +8°C° 0.1 mm 0 m/s 475 mmHg 69%
    08:00 +10°C° 0 mm 1 m/s 476 mmHg 65%
    09:00 +12°C° 0 mm 2 m/s 477 mmHg 60%
    10:00 +13°C° 0 mm 2 m/s 478 mmHg 56%
    11:00 +13°C° 0.3 mm 3 m/s 477 mmHg 56%
    12:00 +13°C° 0.3 mm 3 m/s 477 mmHg 57%
    13:00 +13°C° 0.3 mm 4 m/s 477 mmHg 57%
    14:00 +13°C° 0.1 mm 4 m/s 476 mmHg 60%
    15:00 +13°C° 0.1 mm 4 m/s 476 mmHg 63%
    16:00 +12°C° 0.1 mm 4 m/s 475 mmHg 66%
    17:00 +11°C° 0 mm 4 m/s 475 mmHg 71%
    18:00 +10°C° 0 mm 4 m/s 475 mmHg 76%
    19:00 +9°C° 0 mm 3 m/s 474 mmHg 81%
    20:00 +8°C° 0 mm 3 m/s 474 mmHg 81%
    21:00 +7°C° 0 mm 3 m/s 474 mmHg 81%
    22:00 +7°C° 0 mm 2 m/s 474 mmHg 82%
    23:00 +6°C° 0 mm 2 m/s 474 mmHg 82%

    Amanhã, 18 Janeiro, Sexta-feira

    Tempo Temperatura Precipitação Vento Pressão Humidade
    00:00 +6°C° 0 mm 2 m/s 474 mmHg 82%
    01:00 +6°C° 0 mm 2 m/s 474 mmHg 82%
    02:00 +6°C° 0 mm 2 m/s 474 mmHg 83%
    03:00 +7°C° 0 mm 1 m/s 473 mmHg 84%
    04:00 +7°C° 0 mm 1 m/s 473 mmHg 85%
    05:00 +7°C° 0 mm 1 m/s 474 mmHg 81%
    06:00 +8°C° 0 mm 1 m/s 475 mmHg 78%
    07:00 +9°C° 0 mm 1 m/s 475 mmHg 75%
    08:00 +9°C° 0 mm 2 m/s 476 mmHg 70%
    09:00 +10°C° 0 mm 3 m/s 477 mmHg 65%
    10:00 +11°C° 0 mm 3 m/s 477 mmHg 59%
    11:00 +12°C° 0.1 mm 4 m/s 477 mmHg 56%
    12:00 +13°C° 0.1 mm 5 m/s 478 mmHg 52%
    13:00 +14°C° 0.1 mm 6 m/s 478 mmHg 49%
    14:00 +13°C° 0.1 mm 5 m/s 477 mmHg 53%
    15:00 +12°C° 0.1 mm 5 m/s 476 mmHg 57%
    16:00 +12°C° 0.1 mm 5 m/s 476 mmHg 60%
    17:00 +10°C° 0 mm 4 m/s 475 mmHg 66%
    18:00 +8°C° 0 mm 4 m/s 475 mmHg 72%
    19:00 +8°C° 0 mm 3 m/s 474 mmHg 78%
    20:00 +7°C° 0 mm 3 m/s 474 mmHg 78%
    21:00 +7°C° 0 mm 2 m/s 474 mmHg 79%
    22:00 +6°C° 0 mm 2 m/s 474 mmHg 79%
    23:00 +6°C° 0 mm 2 m/s 474 mmHg 78%

    Depois de amanhã, 19 Janeiro, Sábado

    Tempo Temperatura Precipitação Vento Pressão Humidade
    00:00 +7°C° 0 mm 1 m/s 474 mmHg 78%
    01:00 +7°C° 0 mm 1 m/s 474 mmHg 77%
    02:00 +7°C° 0.2 mm 1 m/s 474 mmHg 77%
    03:00 +7°C° 0.2 mm 1 m/s 474 mmHg 77%
    04:00 +7°C° 0.2 mm 1 m/s 474 mmHg 77%
    05:00 +7°C° 0.3 mm 1 m/s 474 mmHg 76%
    06:00 +8°C° 0.3 mm 1 m/s 475 mmHg 75%
    07:00 +8°C° 0.3 mm 1 m/s 475 mmHg 74%
    08:00 +8°C° 0.1 mm 2 m/s 476 mmHg 70%
    09:00 +9°C° 0.1 mm 2 m/s 477 mmHg 66%
    10:00 +11°C° 0.1 mm 3 m/s 477 mmHg 61%
    11:00 +11°C° 0.2 mm 3 m/s 477 mmHg 60%
    12:00 +12°C° 0.2 mm 3 m/s 477 mmHg 58%
    13:00 +12°C° 0.2 mm 3 m/s 477 mmHg 57%
    14:00 +12°C° 0.3 mm 3 m/s 476 mmHg 59%
    15:00 +12°C° 0.3 mm 4 m/s 476 mmHg 62%
    16:00 +12°C° 0.3 mm 4 m/s 475 mmHg 65%
    17:00 +11°C° 0.2 mm 4 m/s 475 mmHg 71%
    18:00 +10°C° 0.2 mm 4 m/s 475 mmHg 77%
    19:00 +9°C° 0.2 mm 3 m/s 475 mmHg 82%
    20:00 +8°C° 0 mm 3 m/s 475 mmHg 84%
    21:00 +8°C° 0 mm 3 m/s 475 mmHg 85%
    22:00 +7°C° 0 mm 3 m/s 475 mmHg 87%
    23:00 +7°C° 0 mm 3 m/s 475 mmHg 87%

    20 Janeiro, Domingo

    Tempo Temperatura Precipitação Vento Pressão Humidade
    00:00 +7°C° 0 mm 2 m/s 474 mmHg 87%
    01:00 +6°C° 0 mm 2 m/s 474 mmHg 87%
    02:00 +7°C° 0 mm 1 m/s 474 mmHg 87%
    03:00 +7°C° 0 mm 1 m/s 474 mmHg 88%
    04:00 +7°C° 0 mm 1 m/s 474 mmHg 89%
    05:00 +7°C° 0 mm 1 m/s 474 mmHg 86%
    06:00 +8°C° 0 mm 1 m/s 475 mmHg 82%
    07:00 +9°C° 0 mm 1 m/s 476 mmHg 79%
    08:00 +10°C° 0 mm 1 m/s 476 mmHg 74%
    09:00 +11°C° 0 mm 1 m/s 477 mmHg 69%
    10:00 +12°C° 0 mm 2 m/s 477 mmHg 65%
    11:00 +12°C° 0.2 mm 2 m/s 477 mmHg 63%
    12:00 +13°C° 0.2 mm 2 m/s 476 mmHg 62%
    13:00 +13°C° 0.2 mm 2 m/s 476 mmHg 61%
    14:00 +12°C° 0.2 mm 3 m/s 476 mmHg 62%
    15:00 +13°C° 0.2 mm 3 m/s 475 mmHg 64%
    16:00 +13°C° 0.2 mm 3 m/s 475 mmHg 65%
    17:00 +11°C° 0.1 mm 3 m/s 475 mmHg 71%
    18:00 +10°C° 0.1 mm 4 m/s 475 mmHg 77%
    19:00 +8°C° 0.1 mm 4 m/s 475 mmHg 83%
    20:00 +9°C° 0 mm 3 m/s 475 mmHg 84%
    21:00 +8°C° 0 mm 3 m/s 475 mmHg 86%
    22:00 +8°C° 0 mm 3 m/s 475 mmHg 88%
    23:00 +8°C° 0 mm 2 m/s 475 mmHg 88%

    21 Janeiro, Segunda-feira

    Tempo Temperatura Precipitação Vento Pressão Humidade
    00:00 +8°C° 0 mm 1 m/s 474 mmHg 89%
    01:00 +8°C° 0 mm 1 m/s 474 mmHg 89%
    02:00 +7°C° 0 mm 1 m/s 473 mmHg 89%
    03:00 +7°C° 0 mm 1 m/s 473 mmHg 89%
    04:00 +6°C° 0 mm 1 m/s 472 mmHg 89%
    05:00 +7°C° 0 mm 1 m/s 473 mmHg 85%
    06:00 +8°C° 0 mm 1 m/s 474 mmHg 81%
    07:00 +9°C° 0 mm 1 m/s 475 mmHg 76%
    08:00 +11°C° 0 mm 1 m/s 476 mmHg 69%
    09:00 +12°C° 0 mm 2 m/s 477 mmHg 61%
    10:00 +14°C° 0 mm 2 m/s 478 mmHg 54%
    11:00 +13°C° 0.2 mm 3 m/s 478 mmHg 53%
    12:00 +14°C° 0.2 mm 3 m/s 477 mmHg 53%
    13:00 +14°C° 0.2 mm 4 m/s 477 mmHg 52%
    14:00 +14°C° 0.2 mm 4 m/s 476 mmHg 56%
    15:00 +13°C° 0.2 mm 4 m/s 476 mmHg 59%
    16:00 +13°C° 0.2 mm 4 m/s 475 mmHg 62%
    17:00 +12°C° 0.1 mm 4 m/s 475 mmHg 69%
    18:00 +11°C° 0.1 mm 4 m/s 475 mmHg 75%
    19:00 +10°C° 0.1 mm 4 m/s 475 mmHg 81%
    20:00 +9°C° 0 mm 3 m/s 475 mmHg 82%
    21:00 +9°C° 0 mm 3 m/s 475 mmHg 83%
    22:00 +8°C° 0 mm 3 m/s 475 mmHg 83%
    23:00 +7°C° 0 mm 3 m/s 475 mmHg 84%

    22 Janeiro, Terça-feira

    Tempo Temperatura Precipitação Vento Pressão Humidade
    00:00 +7°C° 0 mm 2 m/s 474 mmHg 84%
    01:00 +6°C° 0 mm 2 m/s 474 mmHg 84%
    02:00 +6°C° 0 mm 2 m/s 473 mmHg 84%
    03:00 +7°C° 0 mm 1 m/s 473 mmHg 84%
    04:00 +7°C° 0 mm 1 m/s 473 mmHg 84%
    05:00 +7°C° 0 mm 1 m/s 474 mmHg 80%
    06:00 +8°C° 0 mm 1 m/s 475 mmHg 76%
    07:00 +9°C° 0 mm 1 m/s 476 mmHg 73%
    08:00 +9°C° 0.1 mm 2 m/s 476 mmHg 68%
    09:00 +10°C° 0.1 mm 2 m/s 477 mmHg 64%
    10:00 +12°C° 0.1 mm 2 m/s 478 mmHg 60%
    11:00 +12°C° 0.3 mm 3 m/s 477 mmHg 59%
    12:00 +12°C° 0.3 mm 3 m/s 477 mmHg 59%
    13:00 +13°C° 0.3 mm 4 m/s 477 mmHg 59%
    14:00 +13°C° 0.3 mm 4 m/s 476 mmHg 61%
    15:00 +12°C° 0.3 mm 4 m/s 476 mmHg 63%
    16:00 +12°C° 0.3 mm 4 m/s 475 mmHg 65%
    17:00 +11°C° 0.1 mm 3 m/s 475 mmHg 71%
    18:00 +10°C° 0.1 mm 3 m/s 475 mmHg 76%
    19:00 +9°C° 0.1 mm 3 m/s 475 mmHg 81%
    20:00 +9°C° 0 mm 3 m/s 475 mmHg 81%
    21:00 +8°C° 0 mm 3 m/s 475 mmHg 82%
    22:00 +8°C° 0 mm 2 m/s 475 mmHg 82%
    23:00 +7°C° 0 mm 2 m/s 475 mmHg 81%
    Mostrar mais